GSAT0103 (PRN E19)

Last updated on Oct. 31, 2020, 5:53 a.m. UTC

1 38857U 12055A   20303.90864919  .00000065  00000-0  00000-0 0  9999
2 38857  54.9972 158.0809 0001220 254.1799 105.9156  1.70473932 50101
UTC
Height (km)
Latitude
Longitude
Inclination
Orbital Period
UTC large
Height (km)
Speed (km/s)
/
Latitude / Longitude
Inclination (degrees)
Orbital Period (minutes)
Azimuth
Elevation
Range (km)
Doppler Factor
iOS Compass Heading
iOS Angle

Next 30 passes for location: Hong Kong

Rise time Rise Azimuth (degrees) Set time Set Azimuth (degrees) Duration Max altitude (degrees)

No matching passes for this satellites